Hourly Data Report for January 15, 2003

TORONTO CITY
ONTARIO

43°40'00.000" N
79°24'00.000" W
112.50 m
6158355
71508
XTO

Download Data

Hourly Data (January 2003)
Hourly Data Report for January 15, 2003
TIME
LST
Temp Definition
°C
Dew Point Definition
°C
Rel Hum Definition
%
Precip. Amount Definition
mm

Wind Dir Definition
10's deg

Wind Spd Definition
km/h
Visibility Definition
km
Stn Press Definition
kPa
Hmdx Definition


Wind Chill Definition


Weather Definition


00:00 -5.4 -9.7 72     0 LegendMM 100.28     LegendNANA
01:00
02:00
03:00 -6.6 -10.5 74     0 LegendMM 100.24     LegendNANA
04:00 -6.6 -10.5 74     0 LegendMM 100.22     LegendNANA
05:00 -6.5 -10.6 73     0 LegendMM 100.20     LegendNANA
06:00 -6.7 -11.9 66     0 LegendMM 100.18     LegendNANA
07:00 -7.1 -12.1 67     0 LegendMM 100.22     LegendNANA
08:00 -7.4 -11.8 71     0 LegendMM 100.27     LegendNANA
09:00 -7.4 -11.8 71     0 LegendMM 100.32     LegendNANA
10:00 -6.5 -11.7 67     0 LegendMM 100.36     LegendNANA
11:00 -4.9 -12.2 57     0 LegendMM 100.37     LegendNANA
12:00 -4.4 -11.5 58     0 LegendMM 100.34     LegendNANA
13:00 -3.6 -11.2 56     0 LegendMM 100.29     LegendNANA
14:00 -4.6 -11.7 58     0 LegendMM 100.28     LegendNANA
15:00 -4.6 -11.1 60     0 LegendMM 100.33     LegendNANA
16:00 -4.7 -12.2 56     0 LegendMM 100.39     LegendNANA
17:00 -5.3 -12.4 57     0 LegendMM 100.46     LegendNANA
18:00
19:00 -6.4 -10.5 73     0 LegendMM 100.61     LegendNANA
20:00 -6.6 -9.2 82     0 LegendMM 100.67     LegendNANA
21:00 -6.7 -8.6 86     0 LegendMM 100.69     LegendNANA
22:00 -6.1 -9.6 76     0 LegendMM 100.71     LegendNANA
23:00 -6.1 -11.1 68     0 LegendMM 100.76     LegendNANA

Notes on Data Quality.

Legend

  • E = Estimated
  • M = Missing
  • NA = Not Available*
  • [empty] = Indicates an unobserved value
Date modified: